AO-07 1 07530U 74089B 19227.16445786 -.00000041 00000-0 25737-4 0 9999 2 07530 101.7496 194.2473 0011726 235.7947 192.7494 12.53639282 47726 UO-11 1 14781U 84021B 19226.91309204 .00000049 00000-0 12162-4 0 9993 2 14781 097.6086 248.9173 0009734 125.9834 234.2285 14.83100141886245 LO-19 1 20442U 90005G 19226.78763261 -.00000010 00000-0 12831-4 0 9997 2 20442 98.6507 168.7002 0011530 347.1190 12.9697 14.32930552544559 HUBBLE 1 20580U 90037B 19227.29194111 .00000312 00000-0 80320-5 0 9997 2 20580 28.4683 191.0513 0002765 30.6348 113.8385 15.09253691409601 MET-2/21 1 22782U 93055A 19227.24024076 -.00000015 00000-0 -27006-4 0 9996 2 22782 82.5489 117.4115 0022868 19.9308 93.6271 13.83821230310828 AO-27 1 22825U 93061C 19227.43225207 -.00000016 00000-0 11899-4 0 9994 2 22825 98.9066 217.3962 0008241 183.3265 176.7863 14.30064255350200 IO-26 1 22826U 93061D 19227.21062068 -.00000007 00000-0 14999-4 0 9999 2 22826 98.9005 217.1537 0008972 173.1011 187.0295 14.30398092350378 FO-29 1 24278U 96046B 19227.22747068 -.00000049 00000-0 -17195-4 0 9997 2 24278 98.5454 12.8480 0351361 90.8472 273.2935 13.53092836135585 NOAA-15 1 25338U 98030A 19227.51701856 .00000023 00000-0 28250-4 0 9991 2 25338 98.7447 248.6733 0011572 77.0072 283.2399 14.25926726105493 GO-32 1 25397U 98043D 19227.39037777 -.00000028 00000-0 71825-5 0 9993 2 25397 98.6905 166.8426 0000768 166.8044 193.3155 14.23668891 96086 ISS 1 25544U 98067A 19228.04239071 -.00429604 00000-0 -79077-2 0 9997 2 25544 51.6471 64.2882 0005665 289.8139 171.8714 15.50085351184542 NO-44 1 26931U 01043C 19227.38961289 -.00000038 00000-0 17130-4 0 9994 2 26931 67.0496 214.7907 0007445 274.5313 85.4937 14.30549421933228 SO-50 1 27607U 02058C 19227.22281230 -.00000062 00000-0 12299-4 0 9994 2 27607 64.5532 233.7015 0079082 245.4621 113.8223 14.75564546895526 CO-55 1 27844U 03031E 19227.27294135 .00000029 00000-0 32723-4 0 9998 2 27844 98.6842 234.6256 0008972 219.2548 140.7980 14.22189470836474 CO-57 1 27848U 03031J 19227.49260525 .00000021 00000-0 29289-4 0 9997 2 27848 98.6918 235.3544 0008734 231.2201 128.8196 14.21783405836356 RS-22 1 27939U 03042A 19227.69137684 .00000049 00000-0 17387-4 0 9997 2 27939 98.0488 2.4019 0011895 241.2936 118.7073 14.66796235849047 NOAA-18 1 28654U 05018A 19227.51140923 .00000072 00000-0 63880-4 0 9993 2 28654 99.0915 275.3341 0014469 19.5866 340.5858 14.12444791733681 CO-58 1 28895U 05043F 19226.93257445 .00000050 00000-0 18489-4 0 9992 2 28895 097.9669 007.7263 0017185 166.5143 193.6522 14.63681749735623 Falconsat-3 1 30776U 07006E 19227.72075969 .00001306 00000-0 37487-4 0 9995 2 30776 35.4353 80.2808 0003602 277.8040 82.2278 15.36356161689619 CO-65 1 32785U 08021C 19226.83226380 .00000105 00000-0 16950-4 0 9999 2 32785 097.5513 223.8567 0014667 075.3857 284.8985 14.88330387612119 AAUSAT2 1 32788U 08021F 19227.01949551 -.00000080 00000-0 -23808-5 0 9990 2 32788 97.4962 240.2130 0012158 15.6827 344.4768 14.94767822613483 DO-64 1 32789U 08021G 19226.72108145 .00000333 00000-0 26208-4 0 9999 2 32789 97.4605 274.6549 0010525 293.0092 67.0026 15.07047266615558 CO-66 1 32791U 08021J 19227.02292693 .00000286 00000-0 34296-4 0 9991 2 32791 97.5288 230.0685 0014645 51.3948 308.8580 14.90849402612650 RS-30 1 32953U 08025A 19227.67346001 .00000020 00000-0 75656-4 0 9990 2 32953 82.5004 108.7114 0019766 4.9950 355.1320 12.43090764509516 PRISM 1 33493U 09002B 19226.75721137 .00000004 00000-0 59328-5 0 9992 2 33493 98.1207 149.8761 0015419 0.5546 359.5688 14.96702146573680 NOAA-19 1 33591U 09005A 19227.49643893 .00000041 00000-0 47625-4 0 9995 2 33591 99.1828 220.0267 0013328 212.9326 147.1016 14.12371355542060 TISAT-1 1 36799U 10035E 19227.39234364 .00000205 00000-0 26844-4 0 9993 2 36799 98.1627 21.4818 0010972 254.8742 105.1261 14.91133504493366 JUGNU 1 37839U 11058B 19227.67017000 .00000315 00000-0 26141-4 0 9994 2 37839 19.9625 343.1906 0018772 246.4641 245.7918 14.12655589405463 SRMSAT 1 37841U 11058D 19227.72502096 .00000287 00000-0 12668-4 0 9994 2 37841 19.9732 40.8305 0011886 113.8831 343.8842 14.10636276404898 AO-71 1 37854U 11061E 19227.07733243 .00000588 00000-0 38200-4 0 9994 2 37854 101.6975 154.8118 0160287 255.3836 102.9556 15.06522275425635 HRBE 1 37855U 11061F 19227.02113625 .00000425 00000-0 29600-4 0 9990 2 37855 101.7101 152.0441 0173054 266.8888 91.2511 15.05530793425406 ALMASAT-1 1 38078U 12006B 19227.08226115 .00031715 42886-5 17106-3 0 9999 2 38078 69.4239 101.8616 0153332 173.5075 347.2404 15.65560682406467 HORYU-2 1 38340U 12025D 19226.66632078 .00000106 00000-0 23443-4 0 9993 2 38340 98.3253 266.9546 0010324 306.6415 53.3843 14.75736874389562 RS-40 1 38735U 12041C 19227.19752417 .00000026 00000-0 11917-3 0 9991 2 38735 82.4747 192.2320 0017843 108.1598 252.1426 12.42578664319699 BEESAT-3 1 39135U 13015F 19227.40734118 .00000461 00000-0 32667-4 0 9999 2 39135 64.8681 212.5514 0029166 308.4021 51.4486 15.17541528349001 BEESAT-2 1 39136U 13015G 19227.40026756 .00000299 00000-0 25042-4 0 9990 2 39136 64.8672 216.5638 0022060 302.8624 57.0378 15.16959007348922 ZACUBE-1 1 39417U 13066B 19226.99395518 .00000114 00000-0 20780-4 0 9996 2 39417 97.5622 237.2755 0058240 204.7353 155.1066 14.81134628309522 TRITON-1 1 39427U 13066M 19227.39819209 .00000148 00000-0 31813-4 0 9996 2 39427 97.6810 201.2244 0113405 341.5080 18.2019 14.67864018306801 GOMX-1 1 39430U 13066Q 19227.83814075 .00000115 00000-0 29492-4 0 9999 2 39430 97.7506 180.5741 0152462 71.0097 290.7552 14.59269980305084 LO-74 1 39440U 13066AA 19226.90494970 .00000102 00000-0 21430-4 0 9995 2 39440 097.6043 221.9707 0078653 258.9625 100.2732 14.75872709307213 AO-73 1 39444U 13066AE 19227.03036747 .00000151 00000-0 24961-4 0 9994 2 39444 97.5599 239.3110 0057548 198.1355 161.7808 14.81957116308421 SPROUT 1 39770U 14029E 19227.75655701 .00000421 00000-0 52645-4 0 9992 2 39770 97.8863 330.6803 0007670 256.2775 103.7532 14.87387398283468 DUCHIFAT-1 1 40021U 14033M 19227.33987005 .00000311 00000-0 37605-4 0 9994 2 40021 97.9228 152.1242 0011831 215.4130 144.6304 14.90658461280133 NANOSATCBR1 1 40024U 14033Q 19226.79265363 .00000219 00000-0 28705-4 0 9990 2 40024 97.9119 148.8518 0011061 220.8431 139.1958 14.89868883279942 EO-79 1 40025U 14033R 19226.75513898 .00000093 00000-0 15860-4 0 9994 2 40025 97.9037 146.3450 0011228 227.6804 132.3463 14.88964916279819 DTUSAT-2 1 40030U 14033W 19226.76683062 .00000104 00000-0 17222-4 0 9999 2 40030 97.8952 144.4208 0010728 222.6363 137.4022 14.88555587279748 EO-80 1 40032U 14033Y 19226.77458339 .00000127 00000-0 19679-4 0 9992 2 40032 097.8960 144.4295 0010687 223.4986 136.5389 14.88498878279216 ANTELSAT 1 40034U 14033AA 19226.85926764 .00000116 00000-0 24738-4 0 9995 2 40034 097.7537 091.5873 0057204 272.2767 087.1893 14.74120754276562 VELOX-1 1 40057U 14034E 19227.77590665 .00000114 00000-0 23552-4 0 9991 2 40057 98.2423 352.1372 0011934 52.3002 307.9295 14.77689437276342 DAURIA DX 1 1 40071U 14037C 19227.85035633 .00000035 00000-0 11963-4 0 9993 2 40071 98.4335 24.7241 0009299 45.0863 315.1102 14.81282404275866 UKUBE-1 1 40074U 14037F 19227.41174053 .00000118 00000-0 21299-4 0 9993 2 40074 98.4424 32.6625 0005557 47.9633 312.2057 14.84077690276210 HODOYOSHI-1 1 40299U 14070B 19227.84795541 .00000283 00000-0 14788-4 0 9995 2 40299 97.3483 306.3917 0012424 191.2504 280.5436 15.23408806265125 CHUBUSAT-1 1 40300U 14070C 19227.44099628 .00000327 00000-0 17244-4 0 9996 2 40300 97.3256 300.1587 0018830 209.7022 210.9452 15.22130675264802 QSAT-EOS 1 40301U 14070D 19227.86955177 .00000964 00000-0 39970-4 0 9990 2 40301 97.3260 303.9158 0025460 189.5761 262.3734 15.26030482265168 FIREBIRD FU3 1 40377U 15003B 19227.19772835 .00000708 00000-0 32292-4 0 9990 2 40377 99.1166 219.2239 0125534 258.8520 99.8574 15.18941317250653 FIREBIRD FU4 1 40378U 15003C 19227.44812379 .00000697 00000-0 31828-4 0 9998 2 40378 99.1169 219.6054 0125732 257.8885 100.8234 15.18950505250698 GRIFEX 1 40379U 15003D 19227.43369474 .00000576 00000-0 29210-4 0 9999 2 40379 99.1166 213.2964 0133843 277.5098 81.0941 15.15597082250333 NO-84 1 40654U 15025D 19226.36382174 .00005160 00000 0 74260-4 0 6942 2 40654 54.9887 274.1127 0138238 111.3346 250.2321 15.47842633121226 NO-83 1 40655U 15025E 19226.36322400 .00044432 11415-4 18152-3 0 8524 2 40655 54.9646 145.2046 0045991 182.8792 177.2098 15.85211558122698 DEORBITSAIL 1 40719U 15032E 19227.65646546 .00000231 00000-0 40104-4 0 9994 2 40719 97.9014 118.2855 0017586 115.7883 244.5144 14.76769881220817 NUDT-PHONESAT 1 40900U 15049B 19227.72887838 .00001235 00000-0 55586-4 0 9998 2 40900 97.4379 236.4955 0012640 348.8867 98.8954 15.22929156216492 XW-2A 1 40903U 15049E 19227.86019626 .00001100 00000-0 27790-4 0 9995 2 40903 97.3344 270.9429 0011941 297.7274 147.1891 15.41989273219210 XW-2C 1 40906U 15049H 19227.82775170 .00000150 00000-0 11346-4 0 9991 2 40906 97.4686 228.9454 0014923 4.2251 73.2441 15.15714686215809 XW-2D 1 40907U 15049J 19227.73986946 .00000567 00000-0 33021-4 0 9993 2 40907 97.4670 228.5393 0014320 2.0451 117.7317 15.15908730215801 LILACSAT-2 1 40908U 15049K 19227.70028941 -.00000068 00000-0 -11035-6 0 9994 2 40908 97.4802 227.2783 0016232 7.8303 106.8993 15.13824525215582 XW-2E 1 40909U 15049L 19227.72303000 .00000713 00000-0 38514-4 0 9993 2 40909 97.4598 231.4303 0013422 357.1702 90.2876 15.17849613215992 XW-2F 1 40910U 15049M 19227.83803288 .00000463 00000-0 26513-4 0 9998 2 40910 97.4641 230.7103 0014552 353.8402 90.0294 15.17361329215836 XW-2B 1 40911U 15049N 19227.83463334 .00000177 00000-0 12705-4 0 9993 2 40911 97.4687 229.2896 0014087 2.5701 81.2683 15.15835539215710 DCBB 1 40912U 15049P 19227.71552161 .00000617 00000-0 32106-4 0 9994 2 40912 97.4500 234.3173 0014154 335.5332 112.7894 15.19682175216124 TW-1C 1 40926U 15051B 19227.85018052 .00007596 00000-0 10797-3 0 9997 2 40926 97.1318 273.9707 0009221 146.8299 330.0724 15.56626031219208 TW-1A 1 40928U 15051D 19227.74862817 .00001868 00000-0 47209-4 0 9998 2 40928 97.1429 257.7648 0009893 215.9934 256.0248 15.41016242218114 IO-86 1 40931U 15052B 19224.04603009 .00000128 00000-0 -71559-4 0 9993 2 40931 5.9991 28.9859 0014297 198.3742 92.6671 14.76606682209301 LQSat 1 40958U 15057A 19227.64052930 -.00000013 00000-0 56047-5 0 9996 2 40958 97.8952 295.2609 0019352 58.1008 302.2080 14.73085876207332 AO-85 1 40967U 15058D 19226.37157496 .00000133 00000 0 32972-4 0 7763 2 40967 64.7789 346.2593 0193623 184.6463 175.2876 14.75975887116103 ATHENOXAT-1 1 41168U 15077C 19227.10281879 .00001326 00000-0 34330-4 0 9996 2 41168 14.9875 155.3087 0011641 171.9115 188.1394 15.13702659202695 ChubuSat-2 1 41338U 16012B 19226.91394945 .00000220 00000-0 10342-4 0 9991 2 41338 031.0027 141.1114 0013797 309.3868 050.5546 15.00166252191511 ChubuSat-3 1 41339U 16012C 19227.87470852 .00000168 00000-0 62694-5 0 9999 2 41339 31.0116 133.0238 0013640 325.2350 34.7403 15.00340615191656 Horyu-4 1 41340U 16012D 19226.95079499 .00000303 00000-0 16259-4 0 9997 2 41340 031.0048 129.7549 0013947 336.2661 023.7330 15.01288511191627 OUFTI-1 1 41458U 16025C 19227.46587700 .00001997 00000-0 10455-3 0 9998 2 41458 98.1020 317.2494 0166829 162.4254 198.2842 15.05913402181262 e-st@r-II 1 41459U 16025D 19227.82842066 .00000560 00000-0 32738-4 0 9992 2 41459 98.1040 317.2621 0168386 162.4928 198.2186 15.05545825181299 AAUSAT4 1 41460U 16025E 19227.73123464 .00002474 00000-0 12648-3 0 9991 2 41460 98.0973 318.5440 0158165 155.2057 205.6896 15.07471783181413 LO-87 1 41557U 16033B 19227.70108669 .00000744 00000-0 30496-4 0 9994 2 41557 97.4177 314.8655 0015517 93.1239 267.1775 15.27303057178944 NuSat2 1 41558U 16033C 19227.66327584 .00000731 00000-0 28388-4 0 9992 2 41558 97.4205 316.0624 0014577 93.5074 266.7833 15.29212035178995 Lapan A3 1 41603U 16040E 19227.85355256 -.00000072 00000-0 -23772-6 0 9993 2 41603 97.3575 285.1194 0013076 189.9740 273.6493 15.19730194174575 Swayam 1 41607U 16040J 19227.14209718 .00000810 00000-0 36928-4 0 9993 2 41607 97.3616 288.1095 0013322 181.9887 178.1300 15.23396761174621 Pratham 1 41783U 16059A 19227.18674761 .00000029 00000-0 14977-4 0 9998 2 41783 98.0632 285.4864 0033116 201.0321 158.9521 14.63003692153951 AlSat 1N 1 41789U 16059G 19227.74139370 .00000041 00000-0 16717-4 0 9996 2 41789 98.0669 288.1512 0028263 188.3255 171.7482 14.64255029154142 ScatSat 1 41790U 16059H 19227.85650887 -.00001091 00000-0 -26538-3 0 9990 2 41790 98.2060 271.5233 0006498 137.8221 222.4604 14.50909052152768 TY-1 1 41844U 16066D 19227.86022549 .00000543 00000-0 25065-4 0 9991 2 41844 97.4059 234.5441 0014891 350.5234 92.8383 15.24343003153552 Pegasus-1 1 41846U 16066F 19226.67460734 .00000138 00000-0 30611-4 0 9996 2 41846 098.7073 267.7670 0368524 069.1044 294.9181 14.37600137144742 CAS-2T 1 41847U 16066G 19226.66680324 .00000001 00000-0 99651-5 0 9994 2 41847 98.7015 268.2879 0366882 65.5351 298.3639 14.37999166145180 EO-88 1 42017U 17008BX 19226.69625855 .00000804 00000-0 34441-4 0 9998 2 42017 97.3998 293.1951 0005450 344.2576 15.8492 15.25631429138612 nSIGHT1 1 42726U 98067MF 19227.42385594 .00015054 00000-0 11117-3 0 9991 2 42726 51.6370 13.0101 0004405 33.6133 326.5144 15.73224950126904 CAS-4B 1 42759U 17034B 19227.57819126 -.00000080 00000-0 86287-5 0 9997 2 42759 43.0196 272.8499 0012530 259.0671 259.3612 15.09610786119589 CAS-4A 1 42761U 17034D 19227.53612308 .00000092 00000-0 19146-4 0 9990 2 42761 43.0188 272.5772 0012961 259.9308 246.3299 15.09689546119574 UCLSat 1 42765U 17036A 19226.64052498 .00000668 00000-0 31461-4 0 9998 2 42765 97.3470 283.4223 0012412 37.1887 323.0208 15.22822971119136 NIUSat 1 42766U 17036B 19227.59031763 .00000516 00000-0 26139-4 0 9994 2 42766 97.3464 282.6304 0016236 23.6106 336.5872 15.21175243119030 LituanicaSAT 2 1 42768U 17036D 19226.68224192 .00001078 00000-0 48782-4 0 9997 2 42768 097.3507 283.0976 0015662 026.3607 333.8424 15.22932537118982 Aalto 1 1 42775U 17036L 19226.68748457 .00000416 00000-0 21564-4 0 9994 2 42775 097.3453 282.0843 0014659 027.1069 333.0929 15.21392704118873 URSA MAIOR 1 42776U 17036M 19226.70898598 .00000456 00000-0 23233-4 0 9999 2 42776 97.3462 282.2716 0014467 27.0533 333.1454 15.21529933118888 Max Valier Sat 1 42778U 17036P 19226.72527023 .00000507 00000-0 25128-4 0 9997 2 42778 97.3503 283.1236 0013157 31.7087 328.4939 15.22082489118914 Pegasus 1 42784U 17036V 19226.93720011 .00000604 00000-0 28927-4 0 9997 2 42784 097.3473 283.5147 0012963 036.3198 323.8916 15.22569504118978 NUDATSat 1 42787U 17036Y 19226.96409823 .00001063 00000-0 47319-4 0 9994 2 42787 097.3507 284.3144 0013024 027.6687 332.5278 15.23567307118866 SUCHAI 1 1 42788U 17036Z 19226.73141113 .00000742 00000-0 34444-4 0 9993 2 42788 97.3478 283.6513 0012521 36.4781 323.7306 15.22998205119038 SKCUBE 1 42789U 17036AA 19226.68529408 .00000685 00000-0 32134-4 0 9995 2 42789 097.3474 283.5378 0012390 036.8341 323.3745 15.22892256118944 VZLUSAT 1 1 42790U 17036AB 19226.68831755 .00000918 00000-0 41256-4 0 9992 2 42790 097.3489 284.0460 0011917 036.2233 323.9809 15.23563328118974 VENTA 1 1 42791U 17036AC 19226.72462704 .00000685 00000-0 32124-4 0 9997 2 42791 097.3473 283.6275 0012053 037.3577 322.8495 15.22901806118944 Robusta 1B 1 42792U 17036AD 19227.46398460 .00000729 00000-0 33845-4 0 9997 2 42792 97.3474 284.4618 0011918 35.2161 324.9861 15.23064285119089 D-SAT 1 42794U 17036AF 19226.91461249 .00000127 00000-0 16663-4 0 9995 2 42794 097.5354 269.0857 0125290 311.4290 047.6217 14.91118502116868 TechnoSat 1 42829U 17042E 19227.59619296 .00000051 00000-0 10574-4 0 9994 2 42829 97.5565 118.0494 0013077 222.9466 137.0733 14.90987980113565 TOMSK-TPU 120 1 42910U 98067MZ 19227.71886773 .00064514 12672-4 21770-3 0 9996 2 42910 51.6335 345.5850 0003927 6.8805 134.4888 15.90297147114242 TANYUSHA 2 1 42912U 98067NB 19227.70380487 .00204544 29735-4 31036-3 0 9991 2 42912 51.6355 336.3997 0008218 344.5843 168.0773 16.04007407114361 TNS 0-2 1 42914U 98067ND 19227.44859536 .00062325 12619-4 19850-3 0 9992 2 42914 51.6330 347.1897 0004417 353.9394 6.1558 15.91456142114190 QIKCOM-1 1 42983U 98067NF 19227.52346443 .00001963 00000-0 31040-4 0 9999 2 42983 51.6400 49.8337 0003858 350.2234 9.8683 15.59126828102364 AO-91 1 43017U 17073E 19227.05340378 .00000375 00000-0 35121-4 0 9995 2 43017 97.7212 146.1672 0257459 331.9731 26.7813 14.78601225 93736 EcAMSat 1 43019U 98067NG 19227.52821891 .00003524 00000-0 46011-4 0 9994 2 43019 51.6409 43.9127 0004155 329.6268 30.4485 15.61722124184762 PICSAT 1 43132U 18004X 19226.77561745 .00000705 00000-0 32368-4 0 9996 2 43132 97.4850 294.4743 0011140 60.1273 300.1069 15.23661017 88194 AO-92 1 43137U 18004AC 19226.70589467 .00000539 00000-0 25566-4 0 9992 2 43137 97.4841 294.3722 0010749 62.0654 298.1670 15.23532291 88176 TianYi 2 1 43155U 18008A 19227.81954288 .00000621 00000-0 40619-4 0 9994 2 43155 97.4838 299.1330 0018719 122.0828 348.1235 15.11194384 86608 Zhou Enlai 1 43156U 18008B 19227.69450450 .00000691 00000-0 45439-4 0 9995 2 43156 97.4886 298.8963 0016067 120.3649 30.8351 15.10701202 86556 TianYi 6 1 43158U 18008D 19227.88306916 .00000696 00000-0 46268-4 0 9991 2 43158 97.4840 298.5015 0015310 117.4170 7.8161 15.10289532 86548 S-Net G 1 43186U 18014G 19226.72154903 -.00000443 00000-0 -33769-4 0 9992 2 43186 097.7051 134.3372 0011059 167.2237 192.9267 14.96664160083662 S-Net H 1 43187U 18014H 19227.38994031 -.00000466 00000-0 -35772-4 0 9991 2 43187 97.7048 134.9826 0011101 165.2006 194.9542 14.96663841 83763 S-Net J 1 43188U 18014J 19226.72117961 -.00000439 00000-0 -33401-4 0 9995 2 43188 97.7053 134.3424 0011038 167.2254 192.9249 14.96664058 83666 S-Net K 1 43189U 18014K 19226.78837457 -.00000459 00000-0 -35117-4 0 9999 2 43189 97.7050 134.3872 0011042 166.9947 193.1562 14.96663608 82223 FMN 1 1 43192U 18015A 19227.85048834 .00001172 00000-0 50568-4 0 9994 2 43192 97.4061 354.8867 0017785 89.7478 62.6212 15.24406743 85176 Shaonian Xing 1 43199U 18015H 19227.89822659 .00000861 00000-0 37352-4 0 9990 2 43199 97.3849 353.9372 0018831 100.2426 357.7578 15.24884660 85230 1KUNS-PF 1 43466U 98067NP 19227.50219270 .00013623 00000-0 12607-3 0 9994 2 43466 51.6369 40.6374 0000518 1.7974 358.3025 15.67857649 71980 UBAKUSAT 1 43467U 98067NQ 19227.00944565 .00008155 00000-0 91037-4 0 9991 2 43467 51.6375 48.6049 0001721 292.4900 67.5913 15.63778831 71841 Irazu 1 43468U 98067NR 19226.67508706 .00021874 00000-0 17215-3 0 9995 2 43468 51.6355 40.3237 0000466 335.3942 24.7034 15.71400968171905 EnduroSat One 1 43551U 98067NZ 19227.53329315 .00009355 00000-0 10220-3 0 9990 2 43551 51.6372 48.3542 0005279 8.4725 351.6358 15.64121283 62124 EQUISat 1 43552U 98067PA 19226.92314553 .00008746 00000-0 10148-3 0 9993 2 43552 051.6387 053.3082 0005671 005.0281 355.0769 15.62658803061968 UiTMSat 1 1 43589U 98067PD 19227.55995326 .00008344 00000-0 96215-4 0 9990 2 43589 51.6358 50.7446 0005032 16.0468 344.0684 15.62895529 57799 Maya 1 1 43590U 98067PE 19226.78707257 .00009633 00000-0 11015-3 0 9996 2 43590 51.6359 54.5879 0005155 13.6315 346.4818 15.62898272 57607 Bhutan 1 1 43591U 98067PF 19226.90351542 .00009293 00000-0 10622-3 0 9998 2 43591 051.6375 053.8920 0005352 014.5844 345.5304 15.62959638057627 SiriusSat 1 1 43595U 98067PG 19226.92035122 .00008981 00000-0 10638-3 0 9997 2 43595 051.6361 055.4784 0002871 331.5782 028.5055 15.62080843056788 SiriusSat 2 1 43596U 98067PH 19226.89258039 .00008730 00000-0 10424-3 0 9993 2 43596 051.6372 056.0838 0003452 332.1061 027.9748 15.61915028056773 Tanusha-3 1 43597U 98067PJ 19226.89344983 .00011837 00000-0 12968-3 0 9995 2 43597 051.6355 053.7692 0003088 348.4606 011.6318 15.63744542056807 SurfSat 1 43614U 18070B 19227.38979138 .00001533 00000-0 41411-4 0 9990 2 43614 93.0252 27.4673 0018651 84.4378 275.9002 15.37709857 51277 CP-7 DAVE 1 43615U 18070C 19227.39865121 .00001362 00000-0 36916-4 0 9992 2 43615 93.0255 27.4712 0018753 83.9843 276.3546 15.37619908 51274 ELFIN-B 1 43616U 18070D 19227.38204324 .00001923 00000-0 50831-4 0 9999 2 43616 93.0218 27.3734 0019569 87.1438 273.2055 15.38320272 51285 ELFIN-A 1 43617U 18070E 19227.17906329 .00002124 00000-0 56075-4 0 9991 2 43617 93.0272 27.5494 0018762 85.2382 275.1014 15.38365605 51254 STARS-Me Mother 1 43640U 98067PQ 19227.57147622 .00004990 00000-0 68812-4 0 9993 2 43640 51.6372 56.8586 0004797 318.0621 42.0004 15.59185328 48750 CubeBel 1 1 43666U 18083E 19227.91201569 .00000596 00000-0 32923-4 0 9992 2 43666 97.5188 251.9879 0014823 352.4572 127.0517 15.17662127 44113 Changshagaoxin 1 43669U 18083H 19227.70472816 .00000416 00000-0 24537-4 0 9990 2 43669 97.5042 250.9129 0010464 348.5565 11.5429 15.16846524 44020 Ten-Koh 1 43677U 18084G 19227.23506561 -.00000023 00000-0 35103-5 0 9990 2 43677 97.8570 340.6077 0017594 92.4224 267.9008 14.90182779 43187 PO-101 1 43678U 18084H 19227.83576478 .00000292 00000-0 34833-4 0 9996 2 43678 97.8575 341.8497 0011256 108.2264 252.0176 14.91567603 43311 IRVINE 01 1 43693U 18088D 19227.36154726 .00001219 00000-0 52168-4 0 9994 2 43693 85.0345 280.0305 0017616 348.8958 11.1892 15.21544121 42134 QO-100 1 43700U 18090A 19226.81829428 .00000127 00000-0 00000-0 0 9994 2 43700 000.0210 117.6994 0001958 036.2229 129.4156 01.00272250002620 Reaktor Hello World 1 43743U 18096AA 19227.91106505 .00000747 00000-0 31158-4 0 9993 2 43743 97.4579 297.8399 0019437 127.6515 350.7635 15.26697236 39617 MinXSS-2 1 43758U 18099A 19227.43191911 .00000194 00000-0 22723-4 0 9998 2 43758 97.7424 298.7952 0016906 131.2029 229.0652 14.95440052 38061 AO-95 1 43770U 18099N 19227.40598247 .00000450 00000-0 46598-4 0 9993 2 43770 97.7422 298.5297 0015772 137.6177 222.6264 14.94790166 38046 RANGE-B 1 43772U 18099Q 19226.78833053 -.00000053 00000-0 43076-6 0 9992 2 43772 097.7478 298.1197 0015471 127.8628 232.3995 14.94903850037945 RANGE-A 1 43773U 18099R 19226.92886479 .00000069 00000-0 11573-4 0 9990 2 43773 097.7369 297.9140 0014847 127.2220 233.0358 14.94819041037969 MOVE-II 1 43780U 18099Y 19226.75923205 .00000473 00000-0 48318-4 0 9994 2 43780 97.7417 297.9468 0014799 137.1651 223.0725 14.95096078 37930 SNUSat 2 1 43782U 18099AA 19227.15593691 .00000441 00000-0 45495-4 0 9991 2 43782 97.7420 298.3822 0014185 125.9221 234.3318 14.95074518 38009 SnugLite 1 43784U 18099AC 19227.61134636 .00000571 00000-0 57137-4 0 9994 2 43784 97.7384 298.7480 0016443 132.6664 227.5945 14.95156364 38087 ITASat 1 1 43786U 18099AE 19227.67618885 .00000492 00000-0 49932-4 0 9991 2 43786 97.7437 298.9922 0016522 131.5217 228.7425 14.95157948 38097 EAGLET 1 1 43790U 18099AJ 19227.21020727 .00000493 00000-0 49608-4 0 9999 2 43790 97.7427 298.6500 0014640 137.0429 223.1938 14.95530074 37727 ESEO 1 43792U 18099AL 19227.20813322 .00000386 00000-0 40025-4 0 9996 2 43792 97.7406 298.5926 0014516 134.3099 225.9315 14.95517294 37786 CSIM 1 43793U 18099AM 19227.18712032 -.00000058 00000-0 -41225-7 0 9994 2 43793 97.7373 298.4700 0014305 132.7459 227.4968 14.95732664 37755 Astrocast 0.1 1 43798U 18099AS 19226.76966992 -.00000164 00000-0 -95340-5 0 9991 2 43798 97.7419 298.2607 0013840 119.4605 240.7999 14.95747971 37954 JO-97 1 43803U 18099AX 19227.65579828 -.00000082 00000-0 -21899-5 0 9992 2 43803 97.7395 298.8769 0016359 132.3516 227.9093 14.95293358 38084 Suomi 100 1 43804U 18099AY 19227.18691731 -.00000177 00000-0 -10809-4 0 9992 2 43804 97.7392 298.4113 0016398 133.8568 226.4011 14.95292136 38028 Al Farabi 2 1 43805U 18099AZ 19227.64844687 -.00000204 00000-0 -13220-4 0 9995 2 43805 97.7398 298.8875 0016452 132.4889 227.7725 14.95355951 38094 PWSat 2 1 43814U 18099BJ 19227.65504784 .00010859 00000-0 85744-3 0 9991 2 43814 97.7730 300.5464 0013810 136.3635 223.8663 15.00802202 37546 CHOMPTT 1 43855U 18104G 19226.88229599 .00000578 00000-0 23038-4 0 9991 2 43855 85.0361 18.6205 0020238 102.6893 257.6657 15.22443615 36725 ISAT 1 43879U 18111D 19227.71630938 -.00000216 00000-0 -14072-4 0 9990 2 43879 97.7136 134.8744 0012775 183.6966 176.4163 14.96016672 32621 UWE-4 1 43880U 18111E 19227.27741039 .00000228 00000-0 25332-4 0 9990 2 43880 97.7139 134.5568 0012107 186.0135 174.0943 14.96253248 32566 Sparrow 1 43881U 18111F 19226.80223385 -.00000074 00000-0 -13822-5 0 9991 2 43881 97.7145 134.1164 0012098 186.9226 173.1830 14.96300949 32488 Lume 1 1 43908U 18111AJ 19227.17241493 .00000489 00000-0 22685-4 0 9996 2 43908 97.2849 130.8476 0022539 144.8002 215.4730 15.24404685 35205 FO-98 1 43933U 19003B 19227.81991067 .00000416 00000-0 21358-4 0 9991 2 43933 97.2785 283.4983 0016714 237.8244 234.9774 15.21685469 31892 FO-99 1 43937U 19003F 19227.68947071 .00000686 00000-0 31332-4 0 9998 2 43937 97.2733 283.8214 0023420 224.8823 234.2015 15.23657409 31910 Delphini 1 1 44030U 98067PW 19226.92360230 .00006752 00000-0 97120-4 0 9999 2 44030 051.6381 064.5395 0004358 007.2210 352.8844 15.57363234030467 MYSat 1 1 44045U 18092F 19227.66232239 .00001497 00000-0 54354-4 0 9997 2 44045 51.6437 90.1298 0010683 294.6097 65.3646 15.35114245 28145 AstroCast 0.2 1 44083U 19018F 19227.61941235 .00000267 00000-0 14994-4 0 9996 2 44083 97.4645 287.1355 0014563 159.7228 200.4589 15.21416523 20729 AISTechSat 3 1 44103U 19018AB 19227.85378084 .00000352 00000-0 18142-4 0 9995 2 44103 97.4534 287.3878 0013787 177.0515 272.2904 15.22684201 20774 AISat 1 1 44104U 19018AC 19227.59643170 .00000430 00000-0 16652-4 0 9999 2 44104 97.5054 289.6840 0057938 220.3195 139.3743 15.30525152 20861 Raavana-1 1 44329U 98067QE 19226.88419989 .00004267 00000-0 75818-4 0 9990 2 44329 051.6412 069.5366 0006656 297.3130 062.7182 15.52521087009142 Uguisu 1 44330U 98067QF 19226.88560908 .00004237 00000-0 75440-4 0 9998 2 44330 051.6410 069.5456 0006621 295.7747 064.2559 15.52482103009128 NepaliSat-1 1 44331U 98067QG 19226.94724645 .00004225 00000-0 75048-4 0 9997 2 44331 051.6412 069.2079 0006681 298.8482 061.1837 15.52556227009141 Prox-1 1 44339U 19036A 19227.29825163 .00000248 00000-0 90395-5 0 9994 2 44339 24.0005 243.9952 0010928 35.0350 325.0843 14.52654407 7411 OBJECT H 1 44346U 19036H 19227.22349828 .00008045 00000-0 12546-3 0 9997 2 44346 28.5276 230.1468 0389970 283.7995 71.9480 14.96494664 7634 OBJECT J 1 44347U 19036J 19227.25929150 .00023769 00000-0 38057-3 0 9998 2 44347 28.5339 229.4811 0382360 284.7531 71.1002 14.98178949 7641 OBJECT K 1 44348U 19036K 19227.20609498 .00006875 00000-0 10455-3 0 9995 2 44348 28.5216 229.9873 0389484 283.6703 72.0811 14.96927712 7637 NO-104 1 44354U 19036R 19227.18172738 .00007606 00000-0 11515-3 0 9992 2 44354 28.5331 229.8226 0386933 283.6268 72.1523 14.97664374 7617 NO-103 1 44355U 19036S 19227.24364983 .00012804 00000-0 19819-3 0 9996 2 44355 28.5335 229.3542 0384881 284.4168 71.4011 14.98085382 7628 Oculus-ASR 1 44356U 19036T 19227.40400920 .00028541 00000-0 42053-3 0 9998 2 44356 28.5296 227.7057 0382111 286.7531 69.1471 15.00048357 7664 CP9 1 44360U 19036X 19226.40200317 .00018777 00000-0 26229-3 0 9997 2 44360 28.5222 234.1325 0388951 276.6106 79.0364 14.99619322 7385 Move-IIb 1 44398U 19038N 19227.40893973 .00000553 00000-0 36071-4 0 9997 2 44398 97.4921 188.5555 0027264 103.9226 256.5040 15.11614552 6181 SONATE 1 44400U 19038Q 19227.40772887 .00000163 00000-0 13319-4 0 9998 2 44400 97.4932 188.5555 0027056 102.4268 257.9992 15.11642492 6181 JAISAT-1 1 44419U 19038F 19227.39079879 .00000417 00000-0 27715-4 0 9994 2 44419 97.4932 188.5778 0023523 107.6214 252.7589 15.12273941 6186 LightSail-2 1 44420U 19036AC 19226.47655550 .00004710 00000-0 10750-2 0 9997 2 44420 024.0066 249.2147 0019800 027.5154 332.6351 14.52685545005435 /EX
